Starlink 33600

operational
NORAD ID: 62772 Int'l Des: 2025-015 Owner: SPXS Country: US Constellation: starlink
LEOCIRCULAR

Über Starlink 33600

Beschreibung wird geladen...

Live-Position

3D-Globus wird geladen...

Nächste Überflüge

Höhenverlauf

Altitude vs Time

uPlot chart will show altitude changes over time

Zweizeiliger Elementsatz

1 62772U 25015Q 25308.38618059 .00030460 00000-0 10355-2 0 9994
2 62772 53.1614 184.6856 0000423 269.8454 90.2498 15.30225283 45294
Epoch: 4. Nov. 2025 • Age: 14 hours

Aktueller Status

Höhe 477.3 km
Geschwindigkeit 7.63 km/s
Subsatellitenpunkt 32.12°N, 172°E
Startdatum 21. Jan. 2025
Alter 0.7 years
Typ internet

Technische Details

Klassifizierung Payload
Masse 575.00 kg
Trockenmasse 530.00 kg
Gesamtmasse 575.00 kg
Länge 0.30 m
Durchmesser 4.10 m
Spannweite 29.00 m
Form Box + pan
Hersteller SPXS
Bus-Typ Starlink V2MO
Phasenstatus In Orbit
Besitzer/Staat SPXS/US

Große Konstellationen

Loading constellations...